Riverton, WY

12:06 PM MST on March 01, 2017 (GMT -0700)
Riverton Regional

Weather History for KRIW - January, 2014

Change the Weather History Date:

Monday, January 13, 2014

  Actual Average Record
Temperature  
Mean Temperature 35 °F 20 °F  
Max Temperature 44 °F 31 °F 50 °F (2009)
Min Temperature 25 °F 8 °F -13 °F (2013)
Degree Days  
Heating Degree Days 30 45  
Month to date heating degree days 599 591  
Since 1 July heating degree days 3903 3908  
Cooling Degree Days 0 0  
Month to date cooling degree days 0 0  
Year to date cooling degree days 0 0  
Moisture  
Dew Point 18 °F    
Average Humidity 50    
Maximum Humidity 60    
Minimum Humidity 39    
Precipitation  
Precipitation 0.00 in 0.01 in 0.02 in (2013)
Month to date precipitation 0.53 0.12  
Year to date precipitation 0.53 0.12  
Snow  
Snow 0.00 in - - ()
Month to date snowfall 9.2  
Since 1 July snowfall 42.3  
Snow Depth T in    
Sea Level Pressure  
Sea Level Pressure 29.98 in    
Wind  
Wind Speed 24 mph (WNW)    
Max Wind Speed 45 mph    
Max Gust Speed 54 mph    
Visibility 10 miles    
Events Rain , Snow    
T = Trace of Precipitation, MM = Missing Value Source: NWS Daily Summary

Daily Weather History Graph

Daily Weather History Graph

Search for Another Location

Airport or City:

Trip Planner

Search our weather history database for the weather conditions in past years. The results will help you decide how hot, cold, wet, or windy it might be!

Date:

Astronomy

Jan. 13, 2014 Rise Set
Actual Time 7:43 AM MST 5:02 PM MST
Civil Twilight 7:11 AM MST 5:33 PM MST
Nautical Twilight 6:36 AM MST 6:09 PM MST
Astronomical Twilight 6:02 AM MST 6:43 PM MST
Moon 3:20 PM MST (1/13) 5:34 AM MST (1/13)
Length of Visible Light 10h 22m
Length of Day
9h 18m
Waxing Gibbous, 95% of the Moon is Illuminated
Jan 13
Waxing Gibbous
Jan 15
Full
Jan 23
Last Quarter
Jan 30
New
Feb 6
First Quarter

Hourly Weather History & Observations

Time (MST) Temp. Windchill Dew Point Humidity Pressure Visibility Wind Dir Wind Speed Gust Speed Precip Events Conditions
12:53 AM 28.9 °F 17.3 °F 12.9 °F 51% 29.94 in 10.0 mi West 16.1 mph - N/A   Scattered Clouds
1:53 AM 30.9 °F 18.7 °F 15.1 °F 52% 29.93 in 10.0 mi West 19.6 mph - N/A   Clear
2:53 AM 30.0 °F 16.3 °F 17.1 °F 59% 29.96 in 10.0 mi WNW 24.2 mph - N/A   Clear
3:53 AM 28.0 °F 16.5 °F 14.0 °F 56% 29.99 in 10.0 mi WSW 15.0 mph - N/A   Clear
4:53 AM 27.0 °F 13.2 °F 14.0 °F 58% 29.99 in 10.0 mi West 20.7 mph - N/A   Clear
5:53 AM 30.9 °F 19.4 °F 16.0 °F 54% 29.96 in 10.0 mi West 17.3 mph - N/A   Clear
6:53 AM 25.0 °F 14.8 °F 12.9 °F 60% 30.01 in 10.0 mi SW 10.4 mph - N/A   Clear
7:53 AM 34.0 °F 21.0 °F 17.1 °F 50% 29.96 in 10.0 mi West 26.5 mph - N/A   Clear
8:53 AM 39.0 °F 26.2 °F 19.0 °F 45% 29.95 in 10.0 mi WNW 35.7 mph 46.0 mph 0.00 in Rain Light Rain
9:53 AM 42.1 °F 31.1 °F 19.9 °F 41% 29.95 in 10.0 mi NW 31.1 mph 39.1 mph 0.00 in Rain Light Rain
10:53 AM 41.0 °F 29.8 °F 19.9 °F 43% 29.94 in 10.0 mi NW 29.9 mph 54.1 mph 0.00 in Rain Light Rain
11:53 AM 42.1 °F 31.7 °F 21.0 °F 43% 29.91 in 10.0 mi NW 27.6 mph 42.6 mph 0.00 in   Clear
12:53 PM 43.0 °F 32.5 °F 21.0 °F 42% 29.91 in 10.0 mi NW 29.9 mph 41.4 mph 0.00 in Rain Light Rain
1:53 PM 42.1 °F 31.3 °F 21.0 °F 43% 29.91 in 10.0 mi WNW 29.9 mph 38.0 mph 0.00 in   Clear
2:53 PM 42.1 °F 31.9 °F 21.0 °F 43% 29.96 in 10.0 mi WNW 26.5 mph 38.0 mph 0.00 in   Clear
3:53 PM 41.0 °F 31.1 °F 19.9 °F 43% 29.98 in 10.0 mi WNW 23.0 mph 34.5 mph N/A   Clear
4:53 PM 39.9 °F 30.5 °F 19.9 °F 45% 29.98 in 10.0 mi NW 19.6 mph 27.6 mph N/A   Clear
5:53 PM 39.0 °F 28.0 °F 19.9 °F 46% 29.99 in 10.0 mi North 25.3 mph 32.2 mph 0.00 in   Clear
6:53 PM 37.0 °F 26.2 °F 19.9 °F 50% 30.04 in 10.0 mi NNW 21.9 mph 27.6 mph N/A   Clear
7:53 PM 37.0 °F 24.7 °F 19.9 °F 50% 30.01 in 10.0 mi NW 28.8 mph 36.8 mph 0.00 in   Clear
8:53 PM 37.0 °F 25.9 °F 21.0 °F 52% 30.02 in 10.0 mi NW 23.0 mph 33.4 mph 0.00 in   Clear
9:53 PM 37.9 °F 26.3 °F 18.0 °F 45% 30.04 in 10.0 mi WNW 26.5 mph - N/A   Clear
10:53 PM 37.9 °F 25.9 °F 18.0 °F 45% 30.04 in 10.0 mi NW 28.8 mph 39.1 mph 0.00 in Snow Light Snow
11:53 PM 30.9 °F 19.8 °F 21.9 °F 69% 30.13 in 10.0 mi North 16.1 mph 23.0 mph 0.00 in   Scattered Clouds